Regional Weather Roundup
Issued by NWS Charleston, SC

Current Version | Previous Version | Graphics & Text | Print | Product List | Glossary On
Versions: 1 2 3 4 5 6 7 8 9 10 11 12 13 14 15 16 17 18 19 20 21 22 23 24 25 26 27 28 29 30 31 32 33 34 35 36 37 38 39 40 41 42 43 44 45 46 47 48 49 50
000
ASUS42 KCHS 282227
RWRCHS

REGIONAL WEATHER ROUNDUP
NATIONAL WEATHER SERVICE CHARLESTON SC
600 PM EDT FRI APR 28 2017

NOTE: "FAIR" INDICATES FEW OR NO CLOUDS BELOW 12,000 FEET WITH NO
SIGNIFICANT WEATHER AND/OR OBSTRUCTIONS TO VISIBILITY.

NOT ALL STATIONS ARE QUALITY CONTROLLED. USE DATA WITH CAUTION...
ESPECIALLY DEWPOINT OBSERVATIONS.

SCZ027-030-031-034>040-042>050-282300-
...SOUTHEAST SOUTH CAROLINA...

CITY           SKY/WX    TMP DP  RH WIND       PRES   REMARKS
N CHARLESTON   MOSUNNY   81  72  74 S15       30.09S
WATERFRONT PRK   N/A     79  75  87 SW13      30.07S
JOHNS ISLAND   MOCLDY    81  75  83 S13       30.10S
PINOPOLIS        N/A     84  73  70 VRB3      30.01R HX  91
MONCKS CORNER  FAIR      82  70  65 S9        30.09R
SUMMERVILLE    FAIR      82  72  69 S6        30.09R
BEAUFORT MCAS  MOSUNNY   82  76  81 S9        30.07S
BEAUFORT ARPT  FAIR      79  72  78 S9        30.08S
HILTON HEAD IS PTSUNNY   79  75  89 S8G15     30.09S
WALTERBORO     CLEAR     82  72  69 S8        30.08R
ALLENDALE      FAIR      88  72  58 SE9G16    30.04R HX  94

...SOUTHERN MIDLANDS AND PEE DEE...

CITY           SKY/WX    TMP DP  RH WIND       PRES   REMARKS
GEORGETOWN     CLOUDY    79  73  83 S9        30.12R
KINGSTREE      FAIR      84  70  61 SE9       30.07R
ORANGEBURG     MOSUNNY   88  69  53 S12       30.05S HX  92
BARNWELL       FAIR      91  72  52 S10       30.05R HX  98
AIKEN          FAIR      86  66  51 S8        30.08S
MANNING        FAIR      84  72  65 S17G29    30.07R
COLUMBIA       MOSUNNY   91  67  44 S12       30.03R HX  94
SUMTER         SUNNY     89  68  50 S12       30.03S HX  93
FLORENCE       MOSUNNY   89  70  53 S13       30.05S HX  94
MYRTLE BEACH   NOT AVBL
N MYRTLE BEACH MOSUNNY   77  74  90 S14G22    30.10S

$$

GAZ063-065-086>088-099>101-113>116-118-119-134>141-150-282300-
...SOUTHEAST GEORGIA...

CITY           SKY/WX    TMP DP  RH WIND       PRES   REMARKS
SAVANNAH ARPT  SUNNY     87  69  54 S13       30.06R HX  91
HUNTER AAF     SUNNY     83  77  81 S5        30.04S HX  93
FORT STEWART   SUNNY     89  71  54 SE10      30.02R HX  94
STATESBORO     MOSUNNY   90  69  50 SE6       30.04R HX  94
SYLVANIA       CLEAR    N/A N/A N/A SE7       30.05R
CLAXTON        FAIR      89  74  62 E7        30.03R HX  98

...CSRA...CENTRAL AND FAR SOUTHEAST GEORGIA...

CITY           SKY/WX    TMP DP  RH WIND       PRES   REMARKS
THOMSON        SUNNY     86  66  50 W8        30.09S
AUGUSTA-BUSH   MOSUNNY   89  68  49 S12       30.01S HX  93
AUGUSTA-DANIEL MOSUNNY   91  64  40 S12       30.04S HX  92
SWAINSBORO     FAIR      91  64  40 S5        30.04S HX  93
VIDALIA        SUNNY     91  66  43 S5        30.04R HX  94
EASTMAN        FAIR      92  42  17 SW7       30.06R
HAZLEHURST     FAIR      93  66  41 S7        30.02R HX  95
ALMA           MOSUNNY   91  67  44 S7        30.02S HX  94
WAYCROSS       SUNNY     94  72  49 S7        30.03R HX 101
JESUP          FAIR      90  66  45 SE9       30.04R HX  92
BAXLEY         FAIR      91  72  52 S7        30.03R HX  98
BRUNSWICK      SUNNY     84  73  70 SE12      30.07R HX  91
SAINT SIMONS   SUNNY     81  72  74 SE14      30.06S

$$

SCZ027-028-034-036>038-045-046-048>050-GAZ119-141-282300-
...LAKE AND SUPPLEMENTAL COASTAL OBSERVATIONS...

STATION/POSITION TIME  TEMP    WIND        PRES    WAVE   SWELL
                       AIR SEA DIR/SP/G            HT/PER HT/PER/DIR
                 (UTC) (F)     (DEG/KT/KT) (MB)    (FT/S) (FT/S/D)
WINYAH BAY       2130   80     190/ 12     1019.0S
LAKE MURRAY      2150   83     210/  4/  5 1016.3S
ACE BASIN NERRS  2145   80     170/  2     1019.0R
FORT PULASKI     2200   79 76  170/  7/ 12 1018.8
SAPELO ISLAND    2130   84     140/ 11     1018.0S

$$

ANZ835-935-AMZ111-154-330-350-352-354-370-450-454-472-282300-
...C-MAN AND BUOY OBSERVATIONS...

STATION/POSITION TIME  TEMP    WIND        PRES    WAVE   SWELL
                       AIR SEA DIR/SP/G            HT/PER HT/PER/DIR
                 (UTC) (F)     (DEG/KT/KT) (MB)    (FT/S) (FT/S/D)
BUOY 41004       2200   76 75  170/ 10/ 12 1019.5
BUOY 41008       2150   75 74  150/ 12/ 14 1018.2R   3/ 8   2/ 90/ 8
FOLLY BEACH CMAN 2200   77     180/  5/  6 1020.0R
CAPERS NEARSHORE 2208   76 76  170/  6/ 10 1019.3S
FRIPP NEARSHORE  2208   76 75  160/  8/ 10 1018.7R


STATION/POSITION TIME  TEMP    WIND        PRES    WAVE   SWELL
                       AIR SEA DIR/SP/G            HT/PER HT/PER/DIR
                 (UTC) (F)     (DEG/KT/KT) (MB)    (FT/S) (FT/S/D)
5E ST. MARYS GA  2200      75                N/A     3/ 8
FRYING PAN BUOY  2210   75 74  190/  8/ 10 1020.1
BUOY 41025       2150   78 76  210/ 16/ 19 1020.0R   4/ 8   3/120/ 8
CAPE LOOKOUT NC  2200   76     210/ 11/ 15 1019.8R
BUOY 41002       2150   75 76  180/ 10/ 10 1022.6R   4/ 8   3/ 60/ 8
BUOY 41010       2210   78 79  140/ 10/ 12 1020.1
ST AUGUSTINE FL  2200   77 80  150/ 18/ 19 1019.0R


$$




USA.gov is the U.S. government's official web portal to all federal, state and local government web resources and services.